Weather History for Bay City, TX

Change the Weather History Date:

Saturday, November 19, 2011

  Actual Average (KLBX) Record (KLBX)
Temperature  
Mean Temperature 74 °F -  
Max Temperature 79 °F 68 °F 79 °F (1998)
Min Temperature 70 °F 52 °F 32 °F (2014)
Cooling Degree Days 10    
Growing Degree Days 24 (Base 50)    
Moisture  
Dew Point 69 °F    
Average Humidity 80    
Maximum Humidity 89    
Minimum Humidity 72    
Precipitation  
Precipitation 0.00 in - - ()
Sea Level Pressure  
Sea Level Pressure 29.97 in    
Wind  
Wind Speed 12 mph (SE)    
Max Wind Speed 20 mph    
Max Gust Speed 26 mph    
Visibility 10 miles    
Events      
Averages and records for this station are not official NWS values.
T = Trace of Precipitation, MM = Missing Value Source: NWS Daily Summary

Daily Weather History Graph

Daily Weather History Graph

Search for Another Location

Airport:

Trip Planner

Search our weather history database for the weather conditions in past years. The results will help you decide how hot, cold, wet, or windy it might be!

Date:

Astronomy

Nov. 19, 2011 Rise Set
Actual Time 6:49 AM CST 5:27 PM CST
Civil Twilight 6:24 AM CST 5:52 PM CST
Nautical Twilight 5:55 AM CST 6:21 PM CST
Astronomical Twilight 5:27 AM CST 6:49 PM CST
Moon 12:40 AM CST 1:19 PM CST
Length of Visible Light 11h 28m
Length of Day
10h 37m
Last Quarter, 38% of the Moon is Illuminated
Nov 19
Last Quarter
Nov 25
New
Dec 2
First Quarter
Dec 10
Full
Dec 17
Last Quarter

Hourly Weather History & Observations

Time (CST) Temp. Dew Point Humidity Pressure Visibility Wind Dir Wind Speed Gust Speed Precip Events Conditions
12:15 AM 70.3 °F 64.2 °F 81% 30.01 in 10.0 mi SE 11.5 mph - N/A   Unknown
12:35 AM 70.2 °F 64.4 °F 82% 30.01 in 10.0 mi SE 10.4 mph - N/A   Unknown
12:55 AM 70.2 °F 64.8 °F 83% 30.00 in 10.0 mi SE 11.5 mph - N/A   Unknown
1:15 AM 70.2 °F 65.3 °F 85% 30.00 in 10.0 mi SE 10.4 mph - N/A   Unknown
1:35 AM 70.0 °F 65.1 °F 85% 29.99 in 10.0 mi SE 9.2 mph - N/A   Unknown
1:55 AM 70.2 °F 64.9 °F 83% 29.99 in 10.0 mi SE 10.4 mph - N/A   Unknown
2:15 AM 70.7 °F 64.9 °F 82% 29.98 in 10.0 mi SE 10.4 mph 16.1 mph N/A   Unknown
2:35 AM 70.9 °F 65.1 °F 82% 29.97 in 10.0 mi SE 10.4 mph - N/A   Unknown
2:55 AM 71.1 °F 65.3 °F 82% 29.96 in 10.0 mi SE 11.5 mph - N/A   Unknown
3:15 AM 71.4 °F 65.5 °F 81% 29.96 in 10.0 mi SE 11.5 mph - N/A   Unknown
3:35 AM 71.6 °F 65.8 °F 82% 29.96 in 10.0 mi SE 11.5 mph - N/A   Unknown
3:55 AM 71.6 °F 66.2 °F 83% 29.95 in 10.0 mi SE 10.4 mph - N/A   Unknown
4:15 AM 71.6 °F 66.4 °F 84% 29.96 in 10.0 mi SE 8.1 mph - N/A   Unknown
4:35 AM 71.4 °F 66.6 °F 85% 29.95 in 10.0 mi SE 9.2 mph - N/A   Unknown
4:55 AM 71.6 °F 67.1 °F 86% 29.96 in 10.0 mi SE 9.2 mph - N/A   Unknown
5:15 AM 71.6 °F 67.3 °F 86% 29.96 in 10.0 mi SE 9.2 mph - N/A   Unknown
5:35 AM 71.8 °F 67.5 °F 86% 29.97 in 10.0 mi SE 9.2 mph - N/A   Unknown
6:15 AM 72.3 °F 67.8 °F 86% 29.98 in 10.0 mi SE 8.1 mph - N/A   Unknown
6:35 AM 72.1 °F 68.0 °F 87% 29.98 in 10.0 mi SE 8.1 mph - N/A   Unknown
6:55 AM 72.0 °F 68.0 °F 87% 29.99 in 10.0 mi SE 5.8 mph - N/A   Unknown
7:15 AM 72.3 °F 68.4 °F 87% 30.00 in 7.0 mi SE 6.9 mph - N/A   Unknown
7:35 AM 73.2 °F 68.7 °F 86% 30.00 in 10.0 mi SE 8.1 mph - N/A   Unknown
7:55 AM 73.8 °F 68.9 °F 85% 30.01 in 7.0 mi SE 8.1 mph - N/A   Unknown
8:15 AM 74.3 °F 69.1 °F 84% 30.01 in 10.0 mi SE 9.2 mph - N/A   Unknown
8:35 AM 74.8 °F 69.6 °F 84% 30.01 in 7.0 mi SE 11.5 mph - N/A   Unknown
8:55 AM 75.6 °F 69.8 °F 82% 30.01 in 10.0 mi SE 11.5 mph - N/A   Unknown
9:15 AM 76.8 °F 69.8 °F 79% 30.02 in 10.0 mi SE 12.7 mph 17.3 mph N/A   Unknown
9:35 AM 78.1 °F 69.8 °F 76% 30.02 in 10.0 mi SSE 13.8 mph 18.4 mph N/A   Unknown
9:55 AM 78.8 °F 70.0 °F 74% 30.02 in 10.0 mi SSE 13.8 mph - N/A   Unknown
10:15 AM 79.0 °F 69.8 °F 73% 30.02 in 10.0 mi SSE 15.0 mph - N/A   Unknown
10:35 AM 78.8 °F 69.8 °F 74% 30.01 in 10.0 mi SSE 13.8 mph 19.6 mph N/A   Unknown
10:55 AM 79.5 °F 69.8 °F 72% 30.01 in 10.0 mi SE 16.1 mph 23.0 mph N/A   Unknown
11:15 AM 79.7 °F 69.8 °F 72% 30.00 in 10.0 mi SE 16.1 mph 23.0 mph N/A   Unknown
11:35 AM 79.5 °F 69.8 °F 72% 29.99 in 10.0 mi SE 15.0 mph 19.6 mph N/A   Unknown
11:55 AM 79.7 °F 70.0 °F 72% 29.99 in 10.0 mi SSE 16.1 mph 19.6 mph N/A   Unknown
12:15 PM 79.3 °F 70.0 °F 73% 29.98 in 10.0 mi SSE 13.8 mph 23.0 mph N/A   Unknown
12:35 PM 79.3 °F 70.0 °F 73% 29.97 in 10.0 mi SSE 17.3 mph 21.9 mph N/A   Unknown
12:55 PM 79.3 °F 69.8 °F 72% 29.96 in 10.0 mi SSE 18.4 mph 24.2 mph N/A   Unknown
1:15 PM 78.8 °F 69.8 °F 74% 29.95 in 10.0 mi SSE 17.3 mph 23.0 mph N/A   Unknown
1:35 PM 79.7 °F 70.2 °F 73% 29.95 in 10.0 mi SSE 16.1 mph 24.2 mph N/A   Unknown
1:55 PM 79.7 °F 70.7 °F 74% 29.94 in 10.0 mi SSE 16.1 mph 23.0 mph N/A   Unknown
2:15 PM 79.7 °F 70.7 °F 74% 29.94 in 10.0 mi SSE 18.4 mph 24.2 mph N/A   Unknown
2:35 PM 79.9 °F 71.1 °F 74% 29.93 in 10.0 mi SSE 18.4 mph 26.5 mph N/A   Unknown
2:55 PM 79.7 °F 71.2 °F 75% 29.93 in 10.0 mi SSE 19.6 mph 26.5 mph N/A   Unknown
3:15 PM 79.3 °F 71.2 °F 76% 29.93 in 10.0 mi SSE 15.0 mph 18.4 mph N/A   Unknown
3:35 PM 79.2 °F 71.6 °F 78% 29.93 in 10.0 mi SSE 17.3 mph 23.0 mph N/A   Unknown
3:55 PM 79.2 °F 71.4 °F 77% 29.93 in 10.0 mi SSE 15.0 mph - N/A   Unknown
4:15 PM 79.2 °F 71.6 °F 78% 29.93 in 10.0 mi SSE 16.1 mph 20.7 mph N/A   Unknown
4:35 PM 78.8 °F 71.6 °F 78% 29.93 in 10.0 mi SSE 16.1 mph 21.9 mph N/A   Unknown
4:55 PM 78.8 °F 71.8 °F 79% 29.93 in 10.0 mi SSE 16.1 mph 21.9 mph N/A   Unknown
5:15 PM 78.1 °F 71.8 °F 81% 29.94 in 10.0 mi SSE 15.0 mph 21.9 mph N/A   Unknown
5:35 PM 77.5 °F 71.6 °F 82% 29.94 in 10.0 mi SSE 13.8 mph - N/A   Unknown
5:55 PM 77.2 °F 71.6 °F 83% 29.94 in 10.0 mi SE 12.7 mph - N/A   Unknown
6:15 PM 77.0 °F 71.6 °F 83% 29.95 in 10.0 mi SE 12.7 mph 19.6 mph N/A   Unknown
6:35 PM 76.6 °F 71.6 °F 84% 29.95 in 10.0 mi SE 13.8 mph 18.4 mph N/A   Unknown
6:55 PM 76.5 °F 71.6 °F 85% 29.96 in 10.0 mi SE 13.8 mph 17.3 mph N/A   Unknown
7:15 PM 76.5 °F 71.8 °F 85% 29.97 in 10.0 mi SSE 10.4 mph - N/A   Unknown
7:35 PM 76.1 °F 71.8 °F 86% 29.98 in 10.0 mi SSE 11.5 mph 19.6 mph N/A   Unknown
7:55 PM 76.1 °F 72.0 °F 87% 29.98 in 7.0 mi SSE 10.4 mph - N/A   Unknown
8:15 PM 76.1 °F 72.1 °F 87% 29.98 in 7.0 mi SSE 9.2 mph - N/A   Unknown
8:35 PM 76.1 °F 72.5 °F 89% 29.99 in 7.0 mi SSE 9.2 mph - N/A   Unknown
8:55 PM 76.3 °F 72.5 °F 88% 30.00 in 7.0 mi SSE 9.2 mph - N/A   Unknown
9:15 PM 76.8 °F 72.7 °F 87% 30.00 in 7.0 mi SSE 11.5 mph - N/A   Unknown
9:35 PM 76.6 °F 72.5 °F 87% 30.00 in 7.0 mi SSE 10.4 mph - N/A   Unknown
9:55 PM 76.1 °F 72.5 °F 89% 30.00 in 7.0 mi SSE 10.4 mph - N/A   Unknown
10:15 PM 75.2 °F 71.6 °F 89% 30.01 in 7.0 mi SSE 11.5 mph - N/A   Unknown
10:35 PM 75.7 °F 72.9 °F 91% 30.01 in 7.0 mi SSE 11.5 mph 17.3 mph N/A   Unknown
10:55 PM 76.5 °F 73.4 °F 90% 30.01 in 7.0 mi SSE 11.5 mph 18.4 mph N/A   Unknown
11:15 PM 76.6 °F 73.4 °F 90% 30.01 in 7.0 mi SE 13.8 mph - N/A   Unknown
11:35 PM 76.3 °F 73.4 °F 91% 30.00 in 7.0 mi SSE 11.5 mph 16.1 mph N/A   Unknown